Weather History for Idaho Falls, ID

Change the Weather History Date:

Thursday, March 21, 2013

  Actual Average Record
Temperature  
Mean Temperature 35 °F 38 °F  
Max Temperature 41 °F 49 °F 70 °F (2004)
Min Temperature 29 °F 27 °F 3 °F (1955)
Degree Days  
Heating Degree Days 30 27  
Month to date heating degree days 629 649  
Since 1 July heating degree days 6192 6451  
Cooling Degree Days 0 0  
Month to date cooling degree days 0 0  
Year to date cooling degree days 0 0  
Moisture  
Dew Point 25 °F    
Average Humidity 65    
Maximum Humidity 85    
Minimum Humidity 44    
Precipitation  
Precipitation T in 0.03 in 0.26 in (1973)
Month to date precipitation 0.42 0.58  
Year to date precipitation 0.82 1.93  
Sea Level Pressure  
Sea Level Pressure 29.82 in    
Wind  
Wind Speed 19 mph (SW)    
Max Wind Speed 35 mph    
Max Gust Speed 46 mph    
Visibility 10 miles    
Events Rain    
T = Trace of Precipitation, MM = Missing Value Source: NWS Daily Summary

Daily Weather History Graph

Daily Weather History Graph

Search for Another Location

Airport:

Trip Planner

Search our weather history database for the weather conditions in past years. The results will help you decide how hot, cold, wet, or windy it might be!

Date:

Astronomy

Mar. 21, 2013 Rise Set
Actual Time 7:29 AM MDT 7:42 PM MDT
Civil Twilight 7:00 AM MDT 8:10 PM MDT
Nautical Twilight 6:27 AM MDT 8:44 PM MDT
Astronomical Twilight 5:52 AM MDT 9:18 PM MDT
Moon 2:07 PM MDT (3/21) 4:02 AM MDT (3/21)
Length of Visible Light 13h 10m
Length of Day
12h 13m
Waxing Gibbous, 69% of the Moon is Illuminated
Mar 21
Waxing Gibbous
Mar 27
Full
Apr 2
Last Quarter
Apr 10
New
Apr 18
First Quarter

Hourly Weather History & Observations

Time (MDT) Temp. Windchill Dew Point Humidity Pressure Visibility Wind Dir Wind Speed Gust Speed Precip Events Conditions
12:53 AM 39.9 °F 30.2 °F 35.1 °F 83% 29.68 in 10.0 mi South 20.7 mph 26.5 mph N/A   Mostly Cloudy
1:53 AM 39.9 °F 31.4 °F 35.1 °F 83% 29.69 in 10.0 mi WSW 16.1 mph 29.9 mph N/A   Overcast
2:05 AM 39.2 °F 32.0 °F 35.6 °F 87% 29.68 in 10.0 mi SW 11.5 mph - N/A   Overcast
2:28 AM 39.2 °F 30.5 °F 35.6 °F 87% 29.68 in 10.0 mi SW 16.1 mph - N/A   Overcast
2:37 AM 39.2 °F 31.2 °F 35.6 °F 87% 29.68 in 10.0 mi SW 13.8 mph - N/A   Overcast
2:53 AM 39.0 °F 30.3 °F 35.1 °F 86% 29.69 in 10.0 mi SW 16.1 mph - N/A   Overcast
3:53 AM 37.0 °F 27.7 °F 33.1 °F 86% 29.70 in 10.0 mi SW 16.1 mph - 0.00 in Rain Light Rain
4:53 AM 35.1 °F 22.5 °F 28.0 °F 76% 29.73 in 10.0 mi SW 26.5 mph 32.2 mph 0.00 in   Overcast
5:16 AM 35.6 °F 24.2 °F 28.4 °F 75% 29.73 in 10.0 mi SSW 21.9 mph - N/A   Overcast
5:53 AM 34.0 °F 21.3 °F 28.0 °F 79% 29.75 in 10.0 mi SSW 25.3 mph 32.2 mph N/A   Overcast
6:43 AM 33.8 °F 21.3 °F 26.6 °F 75% 29.73 in 10.0 mi SW 24.2 mph 31.1 mph N/A   Scattered Clouds
6:53 AM 33.1 °F 21.2 °F 26.1 °F 75% 29.75 in 10.0 mi SW 20.7 mph 28.8 mph N/A   Mostly Cloudy
7:41 AM 33.8 °F 24.3 °F 24.8 °F 70% 29.76 in 10.0 mi NNW 13.8 mph - N/A   Mostly Cloudy
7:53 AM 33.1 °F 24.4 °F 27.0 °F 78% 29.80 in 10.0 mi NNW 11.5 mph - N/A   Mostly Cloudy
8:53 AM 32.0 °F 25.6 °F 27.0 °F 82% 29.85 in 10.0 mi West 6.9 mph - N/A   Mostly Cloudy
9:53 AM 34.0 °F 24.2 °F 24.1 °F 67% 29.87 in 10.0 mi SW 15.0 mph - N/A   Mostly Cloudy
10:53 AM 37.0 °F 30.4 °F 24.1 °F 59% 29.89 in 10.0 mi SSW 9.2 mph - N/A   Overcast
11:53 AM 37.0 °F 28.5 °F 18.0 °F 46% 29.89 in 10.0 mi WSW 13.8 mph 20.7 mph N/A   Overcast
12:53 PM 37.9 °F 28.2 °F 21.9 °F 53% 29.88 in 10.0 mi SW 18.4 mph 28.8 mph N/A   Overcast
1:53 PM 39.0 °F 27.8 °F 21.0 °F 49% 29.86 in 10.0 mi SW 26.5 mph 34.5 mph N/A   Overcast
2:53 PM 39.9 °F 28.6 °F 19.9 °F 45% 29.86 in 10.0 mi SSW 28.8 mph 35.7 mph 0.00 in   Overcast
3:53 PM 39.0 °F 27.0 °F 19.0 °F 45% 29.88 in 10.0 mi SW 31.1 mph 41.4 mph N/A   Mostly Cloudy
4:53 PM 39.0 °F 27.6 °F 19.0 °F 45% 29.90 in 10.0 mi SSW 27.6 mph 42.6 mph N/A   Scattered Clouds
5:53 PM 37.9 °F 26.3 °F 19.0 °F 47% 29.91 in 10.0 mi SSW 26.5 mph 35.7 mph N/A   Partly Cloudy
6:53 PM 36.0 °F 23.9 °F 18.0 °F 48% 29.92 in 10.0 mi SW 25.3 mph 34.5 mph N/A   Clear
7:53 PM 33.1 °F 21.5 °F 16.0 °F 50% 29.94 in 10.0 mi SSW 19.6 mph 32.2 mph N/A   Clear
8:53 PM 32.0 °F 19.2 °F 17.1 °F 54% 29.94 in 10.0 mi SSW 23.0 mph 33.4 mph N/A   Mostly Cloudy
9:53 PM 30.9 °F 18.4 °F 15.1 °F 52% 29.95 in 10.0 mi SSW 20.7 mph 35.7 mph N/A   Clear
10:53 PM 30.9 °F 19.4 °F 17.1 °F 57% 29.96 in 10.0 mi SW 17.3 mph 25.3 mph N/A   Overcast
11:53 PM 30.0 °F 21.1 °F 18.0 °F 61% 29.96 in 10.0 mi SW 10.4 mph - N/A   Overcast